Bangor, ME

12:39 PM EDT on April 29, 2017 (GMT -0400)
Bangor International

Weather History for KBGR - November, 2013

Change the Weather History Date:

Saturday, November 9, 2013

  Actual Average Record
Temperature  
Mean Temperature 34 °F 39 °F  
Max Temperature 42 °F 48 °F 65 °F (1938)
Min Temperature 26 °F 31 °F 17 °F (1992)
Degree Days  
Heating Degree Days 31 26  
Month to date heating degree days 212 219  
Since 1 July heating degree days 906 1045  
Cooling Degree Days 0 0  
Month to date cooling degree days 0 0  
Year to date cooling degree days 355 318  
Moisture  
Dew Point 20 °F    
Average Humidity 55    
Maximum Humidity 75    
Minimum Humidity 34    
Precipitation  
Precipitation 0.00 in 0.14 in 1.09 in (1963)
Month to date precipitation 0.65 1.24  
Year to date precipitation 34.02 35.49  
Snow  
Snow 0.00 in 0.10 in T in (2005)
Month to date snowfall 0.0 0.2  
Since 1 July snowfall 0.0 0.3  
Since 1 September snowfall 0.0 0.3  
Snow Depth 0.00 in    
Sea Level Pressure  
Sea Level Pressure 30.04 in    
Wind  
Wind Speed 9 mph (NW)    
Max Wind Speed 23 mph    
Max Gust Speed 29 mph    
Visibility 10 miles    
Events      
T = Trace of Precipitation, MM = Missing Value Source: NWS Daily Summary

Daily Weather History Graph

Daily Weather History Graph

Search for Another Location

Airport or City:

Trip Planner

Search our weather history database for the weather conditions in past years. The results will help you decide how hot, cold, wet, or windy it might be!

Date:

Astronomy

Nov. 09, 2013 Rise Set
Actual Time 6:24 AM EST 4:13 PM EST
Civil Twilight 5:53 AM EST 4:44 PM EST
Nautical Twilight 5:18 AM EST 5:19 PM EST
Astronomical Twilight 4:44 AM EST 5:53 PM EST
Moon 11:56 AM EST (11/9) 10:43 PM EST (11/9)
Length of Visible Light 10h 50m
Length of Day
9h 48m
Waxing Crescent, 44% of the Moon is Illuminated
Nov 9
Waxing Crescent
Nov 10
First Quarter
Nov 17
Full
Nov 25
Last Quarter
Dec 2
New

Hourly Weather History & Observations

Time (EST) Temp. Windchill Dew Point Humidity Pressure Visibility Wind Dir Wind Speed Gust Speed Precip Events Conditions
12:53 AM 37.0 °F 31.0 °F 21.0 °F 52% 29.90 in 10.0 mi West 8.1 mph 17.3 mph N/A   Mostly Cloudy
1:53 AM 37.0 °F 31.0 °F 21.0 °F 52% 29.93 in 10.0 mi WNW 8.1 mph - N/A   Overcast
2:53 AM 37.0 °F 28.1 °F 21.0 °F 52% 29.94 in 10.0 mi WNW 15.0 mph 23.0 mph N/A   Overcast
3:53 AM 37.0 °F 33.3 °F 21.0 °F 52% 29.96 in 10.0 mi Variable 4.6 mph - N/A   Overcast
4:53 AM 37.0 °F 30.4 °F 21.0 °F 52% 29.98 in 10.0 mi WNW 9.2 mph - N/A   Overcast
5:53 AM 37.0 °F 28.1 °F 21.0 °F 52% 30.00 in 10.0 mi WNW 15.0 mph 20.7 mph N/A   Overcast
6:53 AM 36.0 °F 28.5 °F 21.0 °F 55% 30.03 in 10.0 mi WNW 10.4 mph 18.4 mph N/A   Mostly Cloudy
7:53 AM 36.0 °F 25.6 °F 19.0 °F 50% 30.06 in 10.0 mi NW 18.4 mph 26.5 mph N/A   Mostly Cloudy
8:53 AM 37.0 °F 27.7 °F 18.0 °F 46% 30.06 in 10.0 mi NW 16.1 mph 28.8 mph N/A   Scattered Clouds
9:53 AM 37.9 °F 29.6 °F 18.0 °F 45% 30.07 in 10.0 mi NW 13.8 mph 21.9 mph N/A   Mostly Cloudy
10:53 AM 39.9 °F 31.8 °F 19.0 °F 43% 30.06 in 10.0 mi WNW 15.0 mph 20.7 mph N/A   Scattered Clouds
11:53 AM 39.9 °F 32.1 °F 18.0 °F 41% 30.05 in 10.0 mi NW 13.8 mph - N/A   Scattered Clouds
12:53 PM 41.0 °F 33.1 °F 16.0 °F 36% 30.04 in 10.0 mi NW 15.0 mph 24.2 mph N/A   Clear
1:53 PM 41.0 °F 34.3 °F 16.0 °F 36% 30.04 in 10.0 mi WNW 11.5 mph 19.6 mph N/A   Scattered Clouds
2:53 PM 39.9 °F 32.9 °F 17.1 °F 40% 30.04 in 10.0 mi NW 11.5 mph - N/A   Mostly Cloudy
3:53 PM 37.9 °F 32.7 °F 17.1 °F 43% 30.05 in 10.0 mi NNW 6.9 mph - N/A   Mostly Cloudy
4:53 PM 37.0 °F 32.4 °F 18.0 °F 46% 30.06 in 10.0 mi NNE 5.8 mph - N/A   Overcast
5:53 PM 36.0 °F 32.1 °F 18.0 °F 48% 30.09 in 10.0 mi North 4.6 mph - N/A   Overcast
6:53 PM 34.0 °F - 19.9 °F 56% 30.09 in 10.0 mi Calm Calm - N/A   Mostly Cloudy
7:53 PM 32.0 °F - 21.0 °F 64% 30.10 in 10.0 mi Calm Calm - N/A   Mostly Cloudy
8:53 PM 30.0 °F - 19.0 °F 64% 30.10 in 10.0 mi Calm Calm - N/A   Scattered Clouds
9:53 PM 28.0 °F - 21.0 °F 75% 30.11 in 10.0 mi Calm Calm - N/A   Mostly Cloudy
10:53 PM 28.9 °F - 21.9 °F 75% 30.10 in 10.0 mi Calm Calm - N/A   Mostly Cloudy
11:53 PM 30.0 °F - 24.1 °F 79% 30.09 in 10.0 mi Calm Calm - N/A   Mostly Cloudy